Weather in Silvassa

India     20°16′50″N   73°00′03″E
В апреле 2022 года жителям России запретили посещать сайт meteo.paraplan.net по решению Генеральной прокуратуры. Аудитория сайта уменьшилась в 10 раз. Владельцы сайта не видят смысла в поддержке погодного сервера в таких условиях. Сайт будет закрыт в октябре.
temp.,
°C
wind,
m/s
gust,
m/s
humid.,
%
clouds,
%
prec.,
mm/h
press.,
hPa
HPBL,
m
30 september, fri
fri3023:30+25sw119091 2.4 100816
02:30+24ese11905 0.0 100714
05:30+24se118955 0.0 100813
08:30+26sse10825 0.1 1010186
11:30+30nw23722 1.8 1009745
14:30+31nw436685 0.3 10061191
17:30+28nw248123 1.3 1007155
20:30+25w12864 0.4 100828
1 october, sat
sat123:30+25ssw12892 0.7 100929
02:30+24sse11920 0.4 100716
05:30+23sse22931 1.1 100824
08:30+26wsw12860 1.5 1010228
11:30+29wnw337123 2.4 10091026
14:30+29wnw447122 0.4 1006974
17:30+27wnw24790 0.5 1007233
20:30+25sw22870 0.0 100842
2 october, sun
sun223:30+24s12920 0.3 100930
02:30+23sse22930 1.4 100729
05:30+22se22942 2.4 100823
08:30+26s22844 0.3 1010206
11:30+29wsw236842 0.4 10101207
14:30+29w447316 1.1 1007989
17:30+27w34805 1.4 1008288
20:30+24ssw22864 0.1 100929
3 october, mon
mon323:30+23sse22880 0.1 101029
02:30+23sse22900 0.0 100829
05:30+22se11913 0.0 100917
08:30+25sse22840 0.0 1011212
11:30+29wnw116841 0.1 10101180
14:30+28wnw447640 0.9 1008653
17:30+27wnw34811 1.3 1008250
20:30+24w11852 0.0 101013
4 october, tue
tue423:30+24sw118763 0.0 101013
02:30+23s119027 0.0 100819
05:30+22ene11910 0.0 100812
08:30+25ne12825 0.0 1010235
11:30+29n2369100 0.0 1010933
14:30+30nw336629 0.0 10071230
17:30+27wnw348199 0.3 1006139
20:30+25sw1184100 0.0 100813